Location: Arthez
(43.0833°N, 0.2500°W)
Time: 23:54:06
(UTC+00:00)

CZ-2D R/B - Pass Details

Date: 23 October 2021
Orbit: 519 x 536 km, 97.4° (Epoch: 27 November)

Event Time Altitude Azimuth Distance (km) Brightness Sun altitude
Rises 17:26:09 0° 151° (SSE) 2,662 6.6 -4.5°
Reaches altitude 10° 17:28:18 10° 145° (SE) 1,779 5.7 -4.9°
Maximum altitude 17:31:58 44° 73° (ENE) 748 3.6 -5.5°
Drops below altitude 10° 17:35:40 10° 1° (N) 1,801 5.8 -6.2°
Sets 17:37:51 0° 355° (N) 2,698 6.8 -6.6°
